Flag for Italy Weather past 2 weeks in Verona, Italy

Now
68 °F

Clear.


Feels Like: 68 °F
Forecast: 62 / 90 °F
Wind: 3 mph from North

Location: Verona / Villafranca

Current Time: Aug 30, 2015 at 6:08:07 AM

Latest Report: Aug 30, 2015 at 5:20 AM


Visibility: 10 mi

Pressure: 30.12 "Hg

Humidity: 78%

Dew point: 61 °F

Location of VeronaLocation

Historic Weather in Verona — Graph

°F

Verona temperature yesterday

Maximum temperature yesterday: 91 °F (at 3:20 PM)
Minimum temperature yesterday: 68 °F (at 6:50 AM)
Average temperature yesterday: 80 °F

Past Weeks' High & Low Weather Summary

 TemperatureHumidityPressure
High91 °F (Aug 29, 3:20 PM)100% (Aug 18, 11:50 PM)30.21 "Hg (Aug 18, 11:50 PM)
Low59 °F (Aug 22, 6:50 AM)35% (Aug 20, 6:20 PM)29.71 "Hg (Aug 17, 4:50 AM)
Average73 °F69%29.97 "Hg
* Reported Aug 15 4:20 AM — Aug 30 4:20 AM, Verona, Weather by CustomWeather, © 2015

Note: Actual official high and low records may vary slightly from our data, if they occured in-between our weather recording intervals... More about our weather records

Advertising

Verona weather history for previous 24 hours

 ConditionsComfort  
Time TempWeatherWind HumidityBarometerVisibility
4:20 AM
Sun, Aug 30
68 °FClear.3 mph78%30.15 "Hg10 mi
3:50 AM70 °FClear.3 mph73%30.15 "Hg10 mi
3:20 AM68 °FClear.6 mph83%30.15 "Hg10 mi
2:50 AM68 °FClear.5 mph83%30.15 "Hg10 mi
2:20 AM70 °FClear.5 mph78%30.15 "Hg10 mi
1:50 AM70 °FClear.5 mph83%30.15 "Hg10 mi
1:20 AM70 °FClear.5 mph83%30.15 "Hg10 mi
12:50 AM72 °FClear.5 mph78%30.15 "Hg10 mi
12:20 AM73 °FClear.5 mph74%30.15 "Hg10 mi
11:50 PM
Sat, Aug 29
72 °FClear.6 mph78%30.18 "Hg10 mi
10:50 PM73 °FClear.6 mph78%30.15 "Hg10 mi
10:20 PM75 °FClear.7 mph74%30.15 "Hg10 mi
9:50 PM75 °FClear.3 mph69%30.15 "Hg10 mi
9:20 PM77 °FClear.3 mph65%30.15 "Hg10 mi
8:50 PM81 °FSunny.2 mph58%30.12 "Hg10 mi
8:20 PM82 °FSunny.2 mph55%30.12 "Hg10 mi
7:50 PM86 °FSunny.3 mph49%30.12 "Hg10 mi
7:20 PM88 °FSunny.2 mph46%30.12 "Hg10 mi
6:50 PM88 °FPassing clouds.3 mph43%30.12 "HgN/A
6:20 PM90 °FSunny.5 mph43%30.12 "Hg10 mi
5:50 PM91 °FPassing clouds.3 mph38%30.12 "HgN/A
5:20 PM91 °FPassing clouds.5 mph41%30.12 "HgN/A
4:50 PM91 °FPassing clouds.5 mph41%30.12 "HgN/A
4:20 PM91 °FSunny.5 mph41%30.12 "Hg10 mi
3:50 PM91 °FSunny.2 mph41%30.15 "Hg10 mi
3:20 PM91 °FSunny.3 mph44%30.15 "Hg10 mi
2:50 PM90 °FSunny.2 mph46%30.15 "Hg10 mi
2:20 PM90 °FSunny.3 mph46%30.18 "Hg10 mi
1:50 PM88 °FSunny.3 mph49%30.18 "Hg10 mi
1:20 PM88 °FPassing clouds.5 mph52%30.18 "HgN/A
12:50 PM86 °FPassing clouds.5 mph59%30.18 "HgN/A
11:50 AM84 °FPassing clouds.3 mph58%30.21 "HgN/A
11:20 AM82 °FSunny.2 mph58%30.21 "Hg10 mi
10:50 AM81 °FSunny.2 mph66%30.21 "Hg10 mi
9:20 AM77 °FPassing clouds.3 mph69%30.18 "HgN/A
8:50 AM75 °FSunny.2 mph74%30.18 "Hg10 mi
7:50 AM70 °FSunny.1 mph83%30.18 "Hg10 mi
7:20 AM68 °FClear.2 mph88%30.15 "Hg10 mi
6:50 AM68 °FClear.2 mph83%30.15 "Hg10 mi
6:20 AM70 °FClear.2 mph78%30.15 "Hg10 mi
Weather by CustomWeather, © 2015

See weather overviewHow to use our weather pages